LHA8921 CYQB-KMCI

Flight info

Callsign LHA8921
Flight time N/A
Altitude 38000
Route PENTU Q824 TAGUM DCT BYLAW DCT KEOKK DCT IRK BQS8
Aircraft B77W/H-SDE1E2FGIJ1RWYZ/S

Departure

Time 2026-05-07 16:25
Airport Quebec Jean Lesage International Airport (CYQB)

Arrival

Time N/A
Airport Kansas City International Airport (KMCI)
Time Latitude Longitude Altitude Speed Heading
2026-05-07 15:52 46.79259 -71.38470 248 ft 0 kts 103°
2026-05-07 16:15 46.79261 -71.38481 258 ft 4 kts 102°
2026-05-07 16:15 46.79266 -71.38520 248 ft 4 kts 101°
2026-05-07 16:16 46.79271 -71.38556 248 ft 4 kts 94°
2026-05-07 16:16 46.79268 -71.38580 248 ft 4 kts 11°
2026-05-07 16:16 46.79241 -71.38582 248 ft 4 kts
2026-05-07 16:16 46.79232 -71.38583 248 ft 0 kts 11°
2026-05-07 16:19 46.79234 -71.38582 248 ft 2 kts 11°
2026-05-07 16:20 46.79290 -71.38566 248 ft 13 kts 11°
2026-05-07 16:20 46.79368 -71.38553 248 ft 10 kts 349°
2026-05-07 16:20 46.79423 -71.38573 248 ft 8 kts
2026-05-07 16:20 46.79466 -71.38521 248 ft 8 kts 44°
2026-05-07 16:21 46.79507 -71.38463 248 ft 8 kts 44°
2026-05-07 16:21 46.79555 -71.38392 248 ft 11 kts 50°
2026-05-07 16:21 46.79585 -71.38292 248 ft 11 kts 63°
2026-05-07 16:21 46.79635 -71.38211 248 ft 11 kts 44°
2026-05-07 16:22 46.79689 -71.38134 248 ft 11 kts 44°
2026-05-07 16:22 46.79747 -71.38065 248 ft 11 kts 26°
2026-05-07 16:22 46.79821 -71.38047 248 ft 11 kts
2026-05-07 16:22 46.79896 -71.38047 249 ft 11 kts 356°
2026-05-07 16:23 46.79957 -71.38093 250 ft 8 kts 314°
2026-05-07 16:23 46.79967 -71.38152 250 ft 4 kts 248°
2026-05-07 16:23 46.79951 -71.38177 250 ft 0 kts 224°
2026-05-07 16:24 46.79943 -71.38189 250 ft 11 kts 224°
2026-05-07 16:24 46.79697 -71.38541 250 ft 91 kts 224°
2026-05-07 16:24 46.79067 -71.39445 254 ft 160 kts 225°
2026-05-07 16:24 46.78201 -71.40698 640 ft 185 kts 225°
2026-05-07 16:25 46.77249 -71.42082 1234 ft 200 kts 227°
2026-05-07 16:25 46.76314 -71.43545 2228 ft 198 kts 229°
2026-05-07 16:25 46.75380 -71.45087 2915 ft 211 kts 230°
2026-05-07 16:25 46.74345 -71.46802 3313 ft 237 kts 230°
2026-05-07 16:26 46.73243 -71.48630 4208 ft 243 kts 230°
2026-05-07 16:26 46.72101 -71.50492 5110 ft 248 kts 230°
2026-05-07 16:26 46.70947 -71.52400 6165 ft 248 kts 230°
2026-05-07 16:26 46.69799 -71.54260 6973 ft 254 kts 229°
2026-05-07 16:27 46.68577 -71.56158 7841 ft 258 kts 227°
2026-05-07 16:27 46.67333 -71.58073 8704 ft 263 kts 227°
2026-05-07 16:27 46.66063 -71.60034 9552 ft 268 kts 227°
2026-05-07 16:27 46.64790 -71.62001 10403 ft 271 kts 227°
2026-05-07 16:28 46.63444 -71.64081 10824 ft 294 kts 227°
2026-05-07 16:28 46.61971 -71.66356 11049 ft 323 kts 227°
2026-05-07 16:28 46.60385 -71.68803 11639 ft 339 kts 227°
2026-05-07 16:28 46.58746 -71.71329 12570 ft 347 kts 227°
2026-05-07 16:29 46.57074 -71.73904 13632 ft 353 kts 226°
2026-05-07 16:29 46.55382 -71.76506 14691 ft 355 kts 227°
2026-05-07 16:29 46.53699 -71.79092 15911 ft 352 kts 227°
2026-05-07 16:29 46.52020 -71.81671 17224 ft 350 kts 227°
2026-05-07 16:30 46.50344 -71.84244 18321 ft 352 kts 227°
2026-05-07 16:30 46.48657 -71.86829 19236 ft 355 kts 227°
2026-05-07 16:30 46.46948 -71.89444 20141 ft 358 kts 228°
2026-05-07 16:30 46.45288 -71.92142 21066 ft 360 kts 232°
2026-05-07 16:31 46.43723 -71.95000 21974 ft 363 kts 232°
2026-05-07 16:31 46.42147 -71.97884 22878 ft 366 kts 232°
2026-05-07 16:31 46.40560 -72.00782 23677 ft 370 kts 232°
2026-05-07 16:31 46.38946 -72.03723 24353 ft 374 kts 232°
2026-05-07 16:32 46.37312 -72.06696 24969 ft 379 kts 233°
2026-05-07 16:32 46.35663 -72.09690 25609 ft 383 kts 233°
2026-05-07 16:32 46.33989 -72.12726 25982 ft 389 kts 233°
2026-05-07 16:32 46.32292 -72.15801 26376 ft 393 kts 233°
2026-05-07 16:33 46.30580 -72.18896 26878 ft 396 kts 233°
2026-05-07 16:33 46.28905 -72.21923 27323 ft 398 kts 233°
2026-05-07 16:33 46.27172 -72.25051 27748 ft 401 kts 233°
2026-05-07 16:33 46.25423 -72.28203 28152 ft 404 kts 233°
2026-05-07 16:34 46.23660 -72.31378 28557 ft 408 kts 233°
2026-05-07 16:34 46.21858 -72.34619 28923 ft 411 kts 233°
2026-05-07 16:34 46.20069 -72.37833 29339 ft 412 kts 233°
2026-05-07 16:34 46.18278 -72.41047 29792 ft 412 kts 233°
2026-05-07 16:35 46.16477 -72.44276 30057 ft 416 kts 233°
2026-05-07 16:35 46.14660 -72.47531 30271 ft 419 kts 233°
2026-05-07 16:35 46.12828 -72.50809 30488 ft 422 kts 233°
2026-05-07 16:35 46.10961 -72.54146 30762 ft 423 kts 233°
2026-05-07 16:36 46.09116 -72.57437 31099 ft 423 kts 233°
2026-05-07 16:36 46.07271 -72.60723 31419 ft 423 kts 233°
2026-05-07 16:36 46.05609 -72.63684 31668 ft 424 kts 233°
2026-05-07 16:36 46.03765 -72.66968 32082 ft 420 kts 233°
2026-05-07 16:37 46.01939 -72.70220 32495 ft 419 kts 233°
2026-05-07 16:37 46.00082 -72.73524 32730 ft 422 kts 233°
2026-05-07 16:37 45.98233 -72.76812 32858 ft 426 kts 233°
2026-05-07 16:37 45.96374 -72.80116 33107 ft 426 kts 233°
2026-05-07 16:38 45.94516 -72.83410 33445 ft 425 kts 233°
2026-05-07 16:38 45.92658 -72.86699 33706 ft 425 kts 233°
2026-05-07 16:38 45.90793 -72.89990 33903 ft 426 kts 233°
2026-05-07 16:38 45.88909 -72.93273 34106 ft 427 kts 232°
2026-05-07 16:39 45.87024 -72.96538 34415 ft 424 kts 233°
2026-05-07 16:39 45.85145 -72.99788 34648 ft 424 kts 233°
2026-05-07 16:39 45.83237 -73.03089 34788 ft 426 kts 233°
2026-05-07 16:39 45.81349 -73.06357 34942 ft 427 kts 233°
2026-05-07 16:40 45.79460 -73.09626 35160 ft 427 kts 232°
2026-05-07 16:40 45.77571 -73.12892 35363 ft 427 kts 232°
2026-05-07 16:40 45.75679 -73.16160 35527 ft 428 kts 232°
2026-05-07 16:40 45.73780 -73.19432 35739 ft 428 kts 232°
2026-05-07 16:41 45.71985 -73.22809 35981 ft 425 kts 240°
2026-05-07 16:41 45.70604 -73.26544 36502 ft 418 kts 246°
2026-05-07 16:41 45.69489 -73.30369 36748 ft 418 kts 249°
2026-05-07 16:41 45.68615 -73.34338 36897 ft 421 kts 257°
2026-05-07 16:42 45.68108 -73.38470 37024 ft 424 kts 259°
2026-05-07 16:42 45.67669 -73.42637 37209 ft 425 kts 259°
2026-05-07 16:42 45.67238 -73.46804 37463 ft 424 kts 259°
2026-05-07 16:42 45.66801 -73.50965 37676 ft 424 kts 259°
2026-05-07 16:43 45.66344 -73.55194 37738 ft 427 kts 259°
2026-05-07 16:43 45.65417 -73.63561 37806 ft 426 kts 259°
2026-05-07 16:44 45.64481 -73.71865 37819 ft 423 kts 259°
2026-05-07 16:44 45.63544 -73.80118 37828 ft 421 kts 259°
2026-05-07 16:45 45.62598 -73.88406 37818 ft 421 kts 259°
2026-05-07 16:45 45.61651 -73.96644 37809 ft 421 kts 259°
2026-05-07 16:46 45.60864 -74.04926 37817 ft 422 kts 261°
2026-05-07 16:46 45.60213 -74.13304 37808 ft 423 kts 262°
2026-05-07 16:47 45.59551 -74.21642 37839 ft 424 kts 261°
2026-05-07 16:47 45.58855 -74.30022 37819 ft 428 kts 261°
2026-05-07 16:48 45.58382 -74.35608 37812 ft 429 kts 261°
2026-05-07 16:48 45.57654 -74.44119 37811 ft 431 kts 261°
2026-05-07 16:49 45.56923 -74.52587 37828 ft 431 kts 261°
2026-05-07 16:49 45.56185 -74.61067 37821 ft 432 kts 261°
2026-05-07 16:50 45.55439 -74.69557 37825 ft 433 kts 261°
2026-05-07 16:50 45.54682 -74.78112 37800 ft 433 kts 261°
2026-05-07 16:51 45.53924 -74.86595 37825 ft 432 kts 261°
2026-05-07 16:51 45.53162 -74.95060 37826 ft 431 kts 261°
2026-05-07 16:52 45.52394 -75.03507 37827 ft 430 kts 261°
2026-05-07 16:52 45.51615 -75.12005 37840 ft 430 kts 261°
2026-05-07 16:53 45.50835 -75.20450 37850 ft 431 kts 261°
2026-05-07 16:53 45.50048 -75.28899 37855 ft 431 kts 261°
2026-05-07 16:54 45.49255 -75.37351 37859 ft 431 kts 261°
2026-05-07 16:54 45.48454 -75.45811 37863 ft 432 kts 261°
2026-05-07 16:55 45.47640 -75.54338 37869 ft 433 kts 261°
2026-05-07 16:55 45.46824 -75.62826 37862 ft 434 kts 261°
2026-05-07 16:56 45.46001 -75.71322 37858 ft 434 kts 261°
2026-05-07 16:56 45.44751 -75.84112 37871 ft 433 kts 261°
2026-05-07 16:57 45.43896 -75.92587 37882 ft 433 kts 260°
2026-05-07 16:57 45.42927 -76.01034 37881 ft 433 kts 259°
2026-05-07 16:58 45.41938 -76.09531 37876 ft 433 kts 259°
2026-05-07 16:58 45.41129 -76.16562 37882 ft 433 kts 259°
2026-05-07 16:59 45.39822 -76.26348 37890 ft 432 kts 254°
2026-05-07 16:59 45.38267 -76.33155 37917 ft 432 kts 251°
2026-05-07 17:00 45.36374 -76.41252 37901 ft 433 kts 251°
2026-05-07 17:00 45.34481 -76.49353 37890 ft 432 kts 251°
2026-05-07 17:01 45.32572 -76.57503 37891 ft 433 kts 251°
2026-05-07 17:01 45.30684 -76.65540 37895 ft 433 kts 251°
2026-05-07 17:02 45.28765 -76.73683 37895 ft 433 kts 251°
2026-05-07 17:02 45.26854 -76.81769 37906 ft 433 kts 251°
2026-05-07 17:03 45.24932 -76.89859 37904 ft 434 kts 251°
2026-05-07 17:03 45.22988 -76.98003 37906 ft 434 kts 251°
2026-05-07 17:04 45.21054 -77.06087 37896 ft 433 kts 251°
2026-05-07 17:04 45.19117 -77.14157 37904 ft 433 kts 251°
2026-05-07 17:05 45.17165 -77.22268 37922 ft 433 kts 251°
2026-05-07 17:05 45.15218 -77.30324 37907 ft 433 kts 251°
2026-05-07 17:06 45.13265 -77.38378 37904 ft 433 kts 251°
2026-05-07 17:06 45.11305 -77.46430 37904 ft 434 kts 251°
2026-05-07 17:07 45.09326 -77.54535 37901 ft 434 kts 251°
2026-05-07 17:07 45.07354 -77.62579 37897 ft 433 kts 251°
2026-05-07 17:08 45.05378 -77.70613 37911 ft 434 kts 251°
2026-05-07 17:08 45.03381 -77.78701 37907 ft 434 kts 251°
2026-05-07 17:09 45.01391 -77.86733 37909 ft 434 kts 251°
2026-05-07 17:09 44.99395 -77.94762 37911 ft 434 kts 251°
2026-05-07 17:10 44.97380 -78.02840 37916 ft 434 kts 251°
2026-05-07 17:10 44.95372 -78.10859 37891 ft 434 kts 251°
2026-05-07 17:11 44.93363 -78.18857 37904 ft 433 kts 251°
2026-05-07 17:11 44.91353 -78.26831 37921 ft 432 kts 251°
2026-05-07 17:12 44.89328 -78.34838 37918 ft 431 kts 251°
2026-05-07 17:12 44.87314 -78.42772 37924 ft 430 kts 251°
2026-05-07 17:13 44.85296 -78.50696 37921 ft 430 kts 251°
2026-05-07 17:13 44.83273 -78.58615 37925 ft 431 kts 251°
2026-05-07 17:14 44.81228 -78.66594 37914 ft 431 kts 251°
2026-05-07 17:14 44.79192 -78.74514 37932 ft 431 kts 250°
2026-05-07 17:15 44.77003 -78.82350 37934 ft 432 kts 245°
2026-05-07 17:15 44.74261 -78.89851 37937 ft 432 kts 244°
2026-05-07 17:16 44.71496 -78.97397 37946 ft 432 kts 244°
2026-05-07 17:16 44.68754 -79.04905 37936 ft 433 kts 244°
2026-05-07 17:17 44.66009 -79.12419 37916 ft 433 kts 244°
2026-05-07 17:17 44.63264 -79.19916 37926 ft 432 kts 244°
2026-05-07 17:18 44.60500 -79.27445 37944 ft 432 kts 244°
2026-05-07 17:18 44.57751 -79.34908 37944 ft 431 kts 244°
2026-05-07 17:19 44.55002 -79.42357 37969 ft 431 kts 244°
2026-05-07 17:19 44.52246 -79.49803 37956 ft 431 kts 244°
2026-05-07 17:20 44.49466 -79.57292 37949 ft 431 kts 244°
2026-05-07 17:20 44.46702 -79.64718 37957 ft 431 kts 244°
2026-05-07 17:21 44.43933 -79.72135 37961 ft 431 kts 244°
2026-05-07 17:21 44.41161 -79.79544 37960 ft 431 kts 244°
2026-05-07 17:22 44.38363 -79.87002 37962 ft 431 kts 244°